Ed's Weather Station

Ed's Weather Station
Located south of Fulton, MO
Lat. 38.75234 N
Lon. 91.96758 W
Elevation 787 ft

GR3 Radar

Current 24 Hours Yesterday Last 48 Hours Last 72 Hours Last 30 Days Yearly Rainfall Yearly Temp Trends Monthly Wind Direction Last 30 Days Temperature Solar Data
Highs and Lows Trends Sun & Moon Rise\Set Times Moon\Solar Info
Local Weather Advisories Area Forecast Discussion Hazardous Weather Outlook U.S. Severe Weather Storm Prediction Center
All Time Records Monthly Records Yearly Records
Weather Gauges MW Weather Network
Local Area Conditions Printable Weather Flyer MO River Information
About Ed's Weather Weather Station Status Weather Graphic Personal Weather Sites
Kansas City NEXRAD Radar Local/Regional Radar Satellite Images
Weather Underground Data Rain Detail Chart
NWS Forecast Details Ed's Forecast Details UV Forecast Pollen Forecast Space Weather
Member of the following organizations:





Local Links:
Callaway County Sheriff

Eds Weather Station - WU Station History
Station Historical Data
Daily Summary for November 10, 2018 Units:  English    Metric   Both
« Previous Day
Next Day »
Daily Weekly Monthly Yearly Custom
  High: Low: Average:
Temperature: TemperatureF °F 16.1 °F 26.2 °F
Dew Point: DewpointF °F 13.2 °F 17 °F
Humidity: Humidity% 51% 69%
Wind Speed: WindSpeedMPHmph 0.0mph 2.9mph
Wind Gust: WindSpeedGustMPHmph - -
Wind- - SSE
Pressure: PressureIn in 30.26 in -
Precipitation: 0.05 in    
Historical Graphs
 
 
Tabular Data for November 10, 2018
Time Temperature Dew Point Pressure Wind Wind Speed Wind Gust Humidity Rainfall Rate (Hourly) solar Conditions
TemperatureF °F DewpointF °F PressureIn in Calm     Humidity% HourlyPrecipIn in SolarRadiationWatts/m^2 W/m2 Conditions
00:04 20.6 °F 14.8 °F 30.48 in NW 2.3 mph 0.8 mph 78% 0.00 in 0.00 W/m2 RA
00:09 20.6 °F 14.8 °F 30.48 in NW 1.2 mph   78% 0.00 in 0.00 W/m2 RA
00:14 20.4 °F 14.9 °F 30.48 in NW 1.2 mph   79% 0.00 in 0.00 W/m2 CLR
00:19 20.3 °F 14.5 °F 30.48 in WSW 3.5 mph 0.1 mph 78% 0.00 in 0.00 W/m2 CLR
00:24 20.2 °F 14.7 °F 30.48 in WSW 2.3 mph 0.3 mph 79% 0.00 in 0.00 W/m2 CLR
00:29 20.2 °F 14.7 °F 30.48 in WSW 2.3 mph 0.3 mph 79% 0.00 in 0.00 W/m2 CLR
00:34 20.1 °F 14.6 °F 30.48 in WSW 2.3 mph 1.3 mph 79% 0.00 in 0.00 W/m2 CLR
00:39 19.9 °F 14.4 °F 30.48 in WSW 2.3 mph 0.7 mph 79% 0.00 in 0.00 W/m2 CLR
00:44 19.9 °F 14.4 °F 30.47 in WNW 1.2 mph   79% 0.00 in 0.00 W/m2 CLR
00:49 19.9 °F 14.4 °F 30.48 in WNW 2.3 mph 0.8 mph 79% 0.00 in 0.00 W/m2 CLR
00:54 19.8 °F 14.3 °F 30.47 in NW 2.3 mph 1.2 mph 79% 0.00 in 0.00 W/m2 CLR
00:59 19.7 °F 14.2 °F 30.48 in NW 2.3 mph 0.4 mph 79% 0.00 in 0.00 W/m2 CLR
01:04 19.7 °F 14.5 °F 30.48 in NW 2.3 mph 0.8 mph 80% 0.00 in 0.00 W/m2 CLR
01:09 19.7 °F 14.5 °F 30.48 in NW 1.2 mph 0.1 mph 80% 0.00 in 0.00 W/m2 CLR
01:14 19.6 °F 14.4 °F 30.47 in NW 1.2 mph 0.5 mph 80% 0.00 in 0.00 W/m2 CLR
01:19 19.5 °F 14.3 °F 30.48 in NW 2.3 mph 1.3 mph 80% 0.00 in 0.00 W/m2 CLR
01:24 19.4 °F 14.2 °F 30.47 in NW 1.2 mph 0.2 mph 80% 0.00 in 0.00 W/m2 CLR
01:29 19.4 °F 13.9 °F 30.47 in WNW 1.2 mph 0.1 mph 79% 0.00 in 0.00 W/m2 CLR
01:34 19.3 °F 14.1 °F 30.47 in WNW 3.5 mph 1.0 mph 80% 0.00 in 0.00 W/m2 CLR
01:39 19.2 °F 14.3 °F 30.47 in WNW 1.2 mph 0.1 mph 81% 0.00 in 0.00 W/m2 CLR
01:44 19.1 °F 13.9 °F 30.47 in WNW 2.3 mph 1.5 mph 80% 0.00 in 0.00 W/m2 CLR
01:49 19.1 °F 14.2 °F 30.48 in West 3.5 mph 1.4 mph 81% 0.00 in 0.00 W/m2 CLR
01:54 19.1 °F 14.2 °F 30.47 in NW 3.5 mph 1.8 mph 81% 0.00 in 0.00 W/m2 CLR
01:59 19.1 °F 14.2 °F 30.48 in WNW 4.0 mph 1.6 mph 81% 0.00 in 0.00 W/m2 CLR
02:04 19.1 °F 14.2 °F 30.47 in WNW 2.3 mph 0.4 mph 81% 0.00 in 0.00 W/m2 CLR
02:09 19.0 °F 13.8 °F 30.47 in Calm     80% 0.00 in 0.00 W/m2 CLR
02:14 18.9 °F 14.0 °F 30.47 in Calm     81% 0.00 in 0.00 W/m2 CLR
02:19 18.9 °F 14.0 °F 30.47 in WNW 2.3 mph 0.8 mph 81% 0.00 in 0.00 W/m2 CLR
02:24 18.9 °F 14.0 °F 30.47 in SW 1.2 mph   81% 0.00 in 0.00 W/m2 CLR
02:29 18.8 °F 13.9 °F 30.47 in Calm     81% 0.00 in 0.00 W/m2 CLR
02:34 18.8 °F 14.2 °F 30.48 in Calm     82% 0.00 in 0.00 W/m2 CLR
02:39 18.7 °F 14.1 °F 30.48 in Calm     82% 0.00 in 0.00 W/m2 CLR
02:44 18.6 °F 13.7 °F 30.48 in Calm     81% 0.00 in 0.00 W/m2 CLR
02:49 18.5 °F 13.9 °F 30.48 in Calm     82% 0.00 in 0.00 W/m2 CLR
02:54 18.4 °F 14.1 °F 30.48 in Calm     83% 0.00 in 0.00 W/m2 CLR
02:59 18.3 °F 14.0 °F 30.48 in Calm     83% 0.00 in 0.00 W/m2 CLR
03:04 18.2 °F 13.6 °F 30.48 in Calm     82% 0.00 in 0.00 W/m2 CLR
03:09 17.9 °F 13.6 °F 30.48 in Calm     83% 0.00 in 0.00 W/m2 CLR
03:14 17.7 °F 13.4 °F 30.48 in Calm     83% 0.00 in 0.00 W/m2 CLR
03:19 17.5 °F 13.5 °F 30.48 in Calm     84% 0.00 in 0.00 W/m2 CLR
03:24 17.4 °F 13.4 °F 30.47 in Calm     84% 0.00 in 0.00 W/m2 CLR
03:29 17.2 °F 13.2 °F 30.48 in Calm     84% 0.00 in 0.00 W/m2 CLR
03:34 17.1 °F 13.6 °F 30.48 in Calm     86% 0.00 in 0.00 W/m2 CLR
03:39 17.1 °F 13.6 °F 30.48 in Calm     86% 0.00 in 0.00 W/m2 CLR
03:44 17.2 °F 13.7 °F 30.48 in Calm     86% 0.00 in 0.00 W/m2 CLR
03:49 17.1 °F 13.6 °F 30.48 in Calm     86% 0.00 in 0.00 W/m2 CLR
03:54 17.0 °F 13.5 °F 30.48 in Calm     86% 0.00 in 0.00 W/m2 CLR
03:59 17.0 °F 13.5 °F 30.48 in Calm     86% 0.00 in 0.00 W/m2 CLR
04:04 16.9 °F 13.4 °F 30.49 in Calm     86% 0.00 in 0.00 W/m2 CLR
04:09 16.9 °F 13.7 °F 30.49 in Calm     87% 0.00 in 0.00 W/m2 CLR
04:14 16.9 °F 13.7 °F 30.49 in Calm     87% 0.00 in 0.00 W/m2 CLR
04:19 16.8 °F 13.6 °F 30.49 in Calm     87% 0.00 in 0.00 W/m2 CLR
04:24 16.9 °F 13.7 °F 30.49 in Calm     87% 0.00 in 0.00 W/m2 CLR
04:29 16.8 °F 13.6 °F 30.49 in Calm     87% 0.00 in 0.00 W/m2 CLR
04:34 16.8 °F 13.6 °F 30.49 in Calm     87% 0.00 in 0.00 W/m2 CLR
04:39 16.8 °F 13.6 °F 30.48 in Calm     87% 0.00 in 0.00 W/m2 CLR
04:44 16.7 °F 13.5 °F 30.49 in Calm     87% 0.00 in 0.00 W/m2 CLR
04:49 16.6 °F 13.4 °F 30.49 in Calm     87% 0.00 in 0.00 W/m2 CLR
04:54 16.6 °F 13.7 °F 30.50 in Calm     88% 0.00 in 0.00 W/m2 CLR
04:59 16.6 °F 13.7 °F 30.50 in Calm     88% 0.00 in 0.00 W/m2 CLR
05:04 16.6 °F 13.7 °F 30.50 in Calm     88% 0.00 in 0.00 W/m2 CLR
05:09 16.5 °F 13.6 °F 30.50 in Calm     88% 0.00 in 0.00 W/m2 CLR
05:14 16.5 °F 13.6 °F 30.50 in Calm     88% 0.00 in 0.00 W/m2 CLR
05:19 16.6 °F 13.7 °F 30.50 in Calm     88% 0.00 in 0.00 W/m2 CLR
05:24 16.6 °F 13.9 °F 30.51 in Calm     89% 0.00 in 0.00 W/m2 CLR
05:29 16.7 °F 14.0 °F 30.50 in Calm     89% 0.00 in 0.00 W/m2 CLR
05:34 16.7 °F 13.8 °F 30.50 in Calm     88% 0.00 in 0.00 W/m2 CLR
05:39 16.7 °F 14.0 °F 30.50 in Calm     89% 0.00 in 0.00 W/m2 CLR
05:44 16.8 °F 13.9 °F 30.50 in Calm     88% 0.00 in 0.00 W/m2 CLR
05:49 16.8 °F 13.9 °F 30.51 in Calm     88% 0.00 in 0.00 W/m2 CLR
05:54 16.7 °F 13.8 °F 30.50 in Calm     88% 0.00 in 0.00 W/m2 CLR
05:59 16.6 °F 13.7 °F 30.50 in Calm     88% 0.00 in 0.00 W/m2 CLR
06:04 16.4 °F 13.5 °F 30.50 in Calm     88% 0.00 in 0.00 W/m2 CLR
06:09 16.4 °F 13.5 °F 30.50 in Calm     88% 0.00 in 0.00 W/m2 CLR
06:14 16.3 °F 13.6 °F 30.50 in Calm     89% 0.00 in 0.00 W/m2 CLR
06:19 16.3 °F 13.6 °F 30.50 in Calm     89% 0.00 in 0.00 W/m2 CLR
06:24 16.2 °F 13.5 °F 30.50 in Calm     89% 0.00 in 0.00 W/m2 CLR
06:29 16.1 °F 13.4 °F 30.50 in Calm     89% 0.00 in 0.00 W/m2 CLR
06:34 16.1 °F 13.4 °F 30.50 in Calm     89% 0.00 in 0.00 W/m2 CLR
06:39 16.1 °F 13.4 °F 30.50 in Calm     89% 0.00 in 0.00 W/m2 CLR
06:44 16.1 °F 13.4 °F 30.50 in Calm     89% 0.00 in 0.00 W/m2 CLR
06:49 16.1 °F 13.7 °F 30.50 in Calm     90% 0.00 in 0.00 W/m2 CLR
06:54 16.1 °F 13.7 °F 30.51 in Calm     90% 0.00 in 5.00 W/m2 CLR
06:59 16.1 °F 13.7 °F 30.52 in Calm     90% 0.00 in 5.00 W/m2 CLR
07:04 16.2 °F 13.8 °F 30.52 in Calm     90% 0.00 in 7.00 W/m2 CLR
07:09 16.2 °F 13.8 °F 30.52 in Calm     90% 0.00 in 9.00 W/m2 CLR
07:14 16.3 °F 13.9 °F 30.52 in Calm     90% 0.00 in 11.00 W/m2 CLR
07:19 16.4 °F 14.0 °F 30.52 in Calm     90% 0.00 in 11.00 W/m2 CLR
07:24 16.4 °F 14.0 °F 30.52 in Calm     90% 0.00 in 12.00 W/m2 CLR
07:29 16.6 °F 14.2 °F 30.52 in Calm     90% 0.00 in 12.00 W/m2 CLR
07:34 16.7 °F 14.3 °F 30.52 in Calm     90% 0.00 in 14.00 W/m2 CLR
07:39 16.9 °F 14.5 °F 30.52 in Calm     90% 0.00 in 14.00 W/m2 CLR
07:44 17.1 °F 14.9 °F 30.52 in Calm     91% 0.00 in 14.00 W/m2 CLR
07:49 17.3 °F 14.9 °F 30.52 in Calm     90% 0.00 in 14.00 W/m2 CLR
07:54 17.4 °F 15.0 °F 30.52 in Calm     90% 0.00 in 16.00 W/m2 CLR
07:59 17.6 °F 15.2 °F 30.52 in Calm     90% 0.00 in 16.00 W/m2 CLR
08:04 17.9 °F 15.5 °F 30.52 in Calm     90% 0.00 in 18.00 W/m2 CLR
08:09 18.1 °F 15.7 °F 30.52 in Calm     90% 0.00 in 18.00 W/m2 CLR
08:14 18.4 °F 15.7 °F 30.52 in Calm     89% 0.00 in 18.00 W/m2 CLR
08:19 18.6 °F 15.6 °F 30.52 in Calm     88% 0.00 in 18.00 W/m2 CLR
08:24 18.6 °F 15.4 °F 30.52 in Calm     87% 0.00 in 18.00 W/m2 CLR
08:29 18.7 °F 14.9 °F 30.52 in Calm     85% 0.00 in 19.00 W/m2 CLR
08:34 18.9 °F 15.4 °F 30.52 in NNW 3.5 mph 0.6 mph 86% 0.00 in 19.00 W/m2 CLR
08:39 19.1 °F 15.3 °F 30.52 in North 3.5 mph 2.6 mph 85% 0.00 in 19.00 W/m2 CLR
08:44 19.3 °F 15.5 °F 30.52 in NNE 2.0 mph 0.8 mph 85% 0.00 in 19.00 W/m2 CLR
08:49 19.4 °F 15.1 °F 30.52 in NNE 2.3 mph 0.7 mph 83% 0.00 in 21.00 W/m2 CLR
08:54 19.6 °F 15.6 °F 30.52 in Calm   0.1 mph 84% 0.00 in 21.00 W/m2 CLR
08:59 19.9 °F 15.3 °F 30.52 in NE 3.5 mph 2.4 mph 82% 0.00 in 26.00 W/m2 CLR
09:04 20.1 °F 14.3 °F 30.52 in NE 3.5 mph 1.2 mph 78% 0.00 in 23.00 W/m2 CLR
09:09 20.3 °F 14.8 °F 30.51 in Calm     79% 0.00 in 23.00 W/m2 CLR
09:14 20.6 °F 15.4 °F 30.51 in NE 1.2 mph 0.3 mph 80% 0.00 in 23.00 W/m2 CLR
09:19 21.0 °F 15.8 °F 30.51 in Calm     80% 0.00 in 25.00 W/m2 CLR
09:24 21.4 °F 15.9 °F 30.50 in NE 4.6 mph 2.2 mph 79% 0.00 in 25.00 W/m2 CLR
09:29 21.6 °F 15.5 °F 30.50 in NNE 3.5 mph 1.2 mph 77% 0.00 in 32.00 W/m2 CLR
09:34 21.8 °F 15.7 °F 30.50 in NNE 3.5 mph 0.3 mph 77% 0.00 in 79.00 W/m2 CLR
09:39 22.4 °F 16.6 °F 30.50 in SSW 3.5 mph 2.4 mph 78% 0.00 in 199.00 W/m2 CLR
09:44 23.3 °F 16.9 °F 30.50 in SSW 2.0 mph 0.6 mph 76% 0.00 in 350.00 W/m2 CLR
09:49 24.0 °F 16.9 °F 30.50 in SSE 4.6 mph 4.1 mph 74% 0.00 in 193.00 W/m2 CLR
09:54 24.4 °F 17.6 °F 30.49 in East 3.5 mph 1.7 mph 75% 0.00 in 162.00 W/m2 CLR
09:59 24.5 °F 17.1 °F 30.49 in ENE 3.5 mph 1.6 mph 73% 0.00 in 84.00 W/m2 CLR
10:04 24.9 °F 17.5 °F 30.50 in East 1.2 mph 0.3 mph 73% 0.00 in 378.00 W/m2 CLR
10:09 25.2 °F 17.4 °F 30.50 in SE 3.5 mph 1.5 mph 72% 0.00 in 461.00 W/m2 CLR
10:14 25.3 °F 16.5 °F 30.49 in SSE 2.3 mph 0.7 mph 69% 0.00 in 452.00 W/m2 CLR
10:19 25.3 °F 16.5 °F 30.49 in West 2.3 mph 1.2 mph 69% 0.00 in 200.00 W/m2 CLR
10:24 25.3 °F 17.5 °F 30.49 in NNE 3.5 mph 1.0 mph 72% 0.00 in 100.00 W/m2 CLR
10:29 25.8 °F 17.4 °F 30.49 in NNE 2.3 mph 0.7 mph 70% 0.00 in 350.00 W/m2 CLR
10:34 26.6 °F 17.8 °F 30.49 in South 3.5 mph 2.2 mph 69% 0.00 in 517.00 W/m2 CLR
10:39 27.8 °F 19.3 °F 30.49 in SE 3.5 mph 2.2 mph 70% 0.00 in 519.00 W/m2 CLR
10:44 28.8 °F 18.5 °F 30.48 in SE 3.5 mph 1.4 mph 65% 0.00 in 524.00 W/m2 CLR
10:49 29.5 °F 19.5 °F 30.48 in South 3.5 mph 1.5 mph 66% 0.00 in 527.00 W/m2 CLR
10:54 29.7 °F 18.6 °F 30.48 in SSW 4.6 mph 2.3 mph 63% 0.00 in 531.00 W/m2 CLR
10:59 29.9 °F 18.8 °F 30.48 in SSW 3.5 mph 2.0 mph 63% 0.00 in 533.00 W/m2 CLR
11:04 30.0 °F 18.5 °F 30.48 in SSE 2.3 mph 1.7 mph 62% 0.00 in 526.00 W/m2 CLR
11:09 30.0 °F 17.8 °F 30.48 in South 5.8 mph 4.0 mph 60% 0.00 in 513.00 W/m2 CLR
11:14 30.3 °F 17.7 °F 30.47 in SE 4.0 mph 3.0 mph 59% 0.01 in 497.00 W/m2 RA
11:19 30.5 °F 18.3 °F 30.47 in ESE 3.5 mph 1.7 mph 60% 0.01 in 482.00 W/m2 RA
11:24 30.9 °F 19.4 °F 30.46 in SSE 4.0 mph 2.7 mph 62% 0.01 in 464.00 W/m2 CLR
11:29 30.9 °F 19.0 °F 30.46 in SSE 5.0 mph 2.1 mph 61% 0.01 in 448.00 W/m2 CLR
11:34 31.2 °F 18.5 °F 30.46 in South 3.5 mph 2.2 mph 59% 0.01 in 436.00 W/m2 CLR
11:39 31.4 °F 18.3 °F 30.46 in SSE 10.4 mph 3.5 mph 58% 0.01 in 429.00 W/m2 CLR
11:44 31.5 °F 18.8 °F 30.46 in South 4.0 mph 2.2 mph 59% 0.01 in 429.00 W/m2 CLR
11:49 31.8 °F 18.3 °F 30.45 in SE 5.8 mph 2.3 mph 57% 0.02 in 434.00 W/m2 RA
11:54 31.4 °F 18.7 °F 30.45 in SSW 4.6 mph 2.3 mph 59% 0.02 in 443.00 W/m2 RA
11:59 32.2 °F 19.9 °F 30.45 in SW 3.5 mph 2.6 mph 60% 0.02 in 455.00 W/m2 CLR
12:04 32.7 °F 18.7 °F 30.45 in SSW 3.5 mph 2.7 mph 56% 0.02 in 473.00 W/m2 CLR
12:09 32.4 °F 19.7 °F 30.44 in ESE 3.5 mph 0.3 mph 59% 0.03 in 489.00 W/m2 RA
12:14 32.8 °F 18.4 °F 30.44 in SSE 4.6 mph 3.1 mph 55% 0.02 in 506.00 W/m2 RA
12:19 33.3 °F 19.7 °F 30.43 in SE 5.8 mph 4.0 mph 57% 0.02 in 515.00 W/m2 CLR
12:24 33.5 °F 19.9 °F 30.42 in South 3.0 mph 1.6 mph 57% 0.02 in 520.00 W/m2 CLR
12:29 33.6 °F 19.6 °F 30.41 in SE 3.5 mph 1.7 mph 56% 0.02 in 519.00 W/m2 CLR
12:34 33.5 °F 18.6 °F 30.41 in ESE 8.1 mph 3.9 mph 54% 0.02 in 513.00 W/m2 CLR
12:39 33.8 °F 19.7 °F 30.41 in SSW 5.0 mph 2.1 mph 56% 0.03 in 510.00 W/m2 RA
12:44 33.9 °F 19.0 °F 30.41 in SSW 3.5 mph 1.9 mph 54% 0.03 in 504.00 W/m2 RA
12:49 34.1 °F 19.6 °F 30.40 in SSW 5.0 mph 3.7 mph 55% 0.02 in 501.00 W/m2 CLR
12:54 33.6 °F 18.3 °F 30.39 in SSE 8.1 mph 2.6 mph 53% 0.02 in 496.00 W/m2 CLR
12:59 33.8 °F 19.3 °F 30.39 in SE 4.6 mph 2.7 mph 55% 0.02 in 487.00 W/m2 CLR
13:04 34.2 °F 19.3 °F 30.39 in ESE 6.9 mph 1.9 mph 54% 0.03 in 483.00 W/m2 RA
13:09 34.6 °F 19.6 °F 30.39 in SE 3.5 mph 1.7 mph 54% 0.02 in 462.00 W/m2 RA
13:14 34.7 °F 18.4 °F 30.39 in South 10.4 mph 6.1 mph 51% 0.02 in 439.00 W/m2 CLR
13:19 33.9 °F 18.1 °F 30.38 in SSE 2.3 mph 1.4 mph 52% 0.02 in 200.00 W/m2 CLR
13:24 33.7 °F 18.4 °F 30.38 in South 11.0 mph 4.2 mph 53% 0.02 in 156.00 W/m2 CLR
13:29 33.2 °F 17.9 °F 30.38 in SSE 5.0 mph 2.5 mph 53% 0.02 in 39.00 W/m2 CLR
13:34 33.1 °F 18.2 °F 30.37 in South 10.4 mph 4.2 mph 54% 0.02 in 160.00 W/m2 CLR
13:39 32.9 °F 18.9 °F 30.37 in South 3.5 mph 2.2 mph 56% 0.01 in 54.00 W/m2 CLR
13:44 33.1 °F 20.7 °F 30.37 in SSE 6.0 mph 1.0 mph 60% 0.01 in 167.00 W/m2 CLR
13:49 33.5 °F 20.3 °F 30.37 in SE 5.0 mph 2.3 mph 58% 0.01 in 120.00 W/m2 CLR
13:54 33.5 °F 20.7 °F 30.37 in SE 5.8 mph 3.3 mph 59% 0.01 in 86.00 W/m2 CLR
13:59 33.6 °F 20.0 °F 30.36 in SE 5.0 mph 2.7 mph 57% 0.01 in 114.00 W/m2 CLR
14:04 33.5 °F 19.5 °F 30.36 in East 3.5 mph 2.2 mph 56% 0.00 in 35.00 W/m2 CLR
14:09 33.7 °F 19.2 °F 30.36 in SE 9.2 mph 3.2 mph 55% 0.00 in 35.00 W/m2 CLR
14:14 33.7 °F 18.4 °F 30.36 in South 6.9 mph 4.0 mph 53% 0.00 in 109.00 W/m2 CLR
14:19 33.7 °F 18.4 °F 30.36 in SSW 8.1 mph 3.3 mph 53% 0.00 in 42.00 W/m2 CLR
14:24 33.6 °F 18.7 °F 30.35 in SSE 4.0 mph 2.2 mph 54% 0.00 in 105.00 W/m2 CLR
14:29 33.7 °F 18.4 °F 30.35 in South 3.5 mph 2.2 mph 53% 0.00 in 109.00 W/m2 CLR
14:34 33.8 °F 18.9 °F 30.35 in ESE 5.8 mph 4.6 mph 54% 0.00 in 62.00 W/m2 CLR
14:39 33.8 °F 19.7 °F 30.35 in ESE 5.0 mph 2.6 mph 56% 0.00 in 107.00 W/m2 CLR
14:44 33.8 °F 18.9 °F 30.34 in SSE 5.8 mph 3.6 mph 54% 0.00 in 28.00 W/m2 CLR
14:49 33.7 °F 18.8 °F 30.34 in SE 6.9 mph 2.0 mph 54% 0.00 in 86.00 W/m2 CLR
14:54 33.7 °F 19.2 °F 30.34 in SE 3.5 mph 0.6 mph 55% 0.00 in 25.00 W/m2 CLR
14:59 33.8 °F 19.3 °F 30.34 in South 5.8 mph 3.1 mph 55% 0.00 in 25.00 W/m2 CLR
15:04 33.8 °F 18.5 °F 30.34 in SE 4.6 mph 3.4 mph 53% 0.00 in 37.00 W/m2 CLR
15:09 33.8 °F 18.9 °F 30.33 in SSE 4.6 mph 2.5 mph 54% 0.00 in 21.00 W/m2 CLR
15:14 33.8 °F 19.7 °F 30.33 in SW 3.5 mph 0.6 mph 56% 0.00 in 21.00 W/m2 CLR
15:19 33.8 °F 19.7 °F 30.33 in SSW 5.0 mph 2.4 mph 56% 0.00 in 49.00 W/m2 CLR
15:24 34.0 °F 18.6 °F 30.32 in SE 8.1 mph 2.4 mph 53% 0.00 in 21.00 W/m2 CLR
15:29 34.1 °F 18.7 °F 30.32 in SSE 8.1 mph 5.2 mph 53% 0.00 in 25.00 W/m2 CLR
15:34 34.1 °F 18.7 °F 30.31 in SE 8.1 mph 2.6 mph 53% 0.00 in 63.00 W/m2 CLR
15:39 34.0 °F 19.5 °F 30.31 in SE 5.8 mph 3.4 mph 55% 0.00 in 26.00 W/m2 CLR
15:44 33.9 °F 19.4 °F 30.31 in SE 8.1 mph 5.0 mph 55% 0.00 in 21.00 W/m2 CLR
15:49 34.0 °F 20.3 °F 30.30 in SSW 3.5 mph 3.3 mph 57% 0.00 in 19.00 W/m2 CLR
15:54 33.9 °F 19.4 °F 30.30 in SE 3.5 mph 2.3 mph 55% 0.00 in 16.00 W/m2 CLR
15:59 33.8 °F 19.3 °F 30.30 in SSE 8.0 mph 3.7 mph 55% 0.00 in 18.00 W/m2 CLR
16:04 33.6 °F 19.1 °F 30.30 in South 4.6 mph 3.9 mph 55% 0.00 in 11.00 W/m2 CLR
16:09 33.7 °F 19.7 °F 30.30 in SSE 6.9 mph 1.5 mph 56% 0.00 in 11.00 W/m2 CLR
16:14 33.5 °F 19.5 °F 30.30 in SE 3.5 mph 2.4 mph 56% 0.00 in 11.00 W/m2 CLR
16:19 33.6 °F 18.7 °F 30.30 in SSE 6.0 mph 2.3 mph 54% 0.00 in 9.00 W/m2 CLR
16:24 33.5 °F 19.0 °F 30.30 in SSE 8.1 mph 2.8 mph 55% 0.00 in 7.00 W/m2 CLR
16:29 33.4 °F 18.1 °F 30.30 in SSE 6.9 mph 3.0 mph 53% 0.00 in 7.00 W/m2 CLR
16:34 33.2 °F 18.8 °F 30.30 in SE 3.5 mph 1.3 mph 55% 0.00 in 7.00 W/m2 CLR
16:39 33.0 °F 19.4 °F 30.30 in SSE 2.3 mph 0.6 mph 57% 0.00 in 5.00 W/m2 CLR
16:44 32.7 °F 19.1 °F 30.30 in SSE 4.0 mph 0.9 mph 57% 0.00 in 5.00 W/m2 CLR
16:49 32.5 °F 19.3 °F 30.29 in SE 3.5 mph 2.3 mph 58% 0.00 in 0.00 W/m2 CLR
16:54 32.3 °F 19.2 °F 30.30 in South 2.3 mph 1.0 mph 58% 0.00 in 0.00 W/m2 CLR
16:59 32.0 °F 18.9 °F 30.30 in SSE 2.3 mph 0.7 mph 58% 0.00 in 0.00 W/m2 CLR
17:04 31.9 °F 18.8 °F 30.30 in SE 4.0 mph 0.5 mph 58% 0.00 in 0.00 W/m2 BKN
17:09 31.7 °F 19.0 °F 30.29 in SE 3.5 mph 1.7 mph 59% 0.00 in 0.00 W/m2 BKN
17:14 31.5 °F 19.6 °F 30.29 in SE 1.2 mph 0.2 mph 61% 0.00 in 0.00 W/m2 BKN
17:19 31.4 °F 19.9 °F 30.29 in SE 1.2 mph   62% 0.00 in 0.00 W/m2 BKN
17:24 31.2 °F 19.7 °F 30.29 in Calm     62% 0.00 in 0.00 W/m2 BKN
17:29 31.0 °F 19.9 °F 30.29 in Calm     63% 0.00 in 0.00 W/m2 BKN
17:34 30.7 °F 19.6 °F 30.29 in South 1.0 mph 0.4 mph 63% 0.00 in 0.00 W/m2 BKN
17:39 30.5 °F 19.4 °F 30.28 in Calm     63% 0.00 in 0.00 W/m2 BKN
17:44 30.3 °F 19.6 °F 30.28 in Calm     64% 0.00 in 0.00 W/m2 BKN
17:49 30.1 °F 19.7 °F 30.28 in Calm     65% 0.00 in 0.00 W/m2 BKN
17:54 30.0 °F 20.0 °F 30.28 in Calm     66% 0.00 in 0.00 W/m2 BKN
17:59 29.9 °F 20.3 °F 30.28 in South 1.2 mph 0.5 mph 67% 0.00 in 0.00 W/m2 BKN
18:04 29.9 °F 19.9 °F 30.28 in SE 1.2 mph   66% 0.00 in 0.00 W/m2 BKN
18:09 29.9 °F 19.9 °F 30.28 in Calm     66% 0.00 in 0.00 W/m2 BKN
18:14 29.9 °F 19.9 °F 30.28 in Calm     66% 0.00 in 0.00 W/m2 BKN
18:19 30.1 °F 20.5 °F 30.27 in SSW 2.0 mph 0.1 mph 67% 0.00 in 0.00 W/m2 BKN
18:24 30.3 °F 20.3 °F 30.27 in SE 1.2 mph   66% 0.00 in 0.00 W/m2 BKN
18:29 30.5 °F 20.5 °F 30.27 in SSW 2.3 mph 1.1 mph 66% 0.00 in 0.00 W/m2 BKN
18:34 30.8 °F 20.4 °F 30.27 in South 1.2 mph 0.3 mph 65% 0.00 in 0.00 W/m2 BKN
18:39 31.1 °F 19.6 °F 30.27 in SSE 3.5 mph 0.8 mph 62% 0.00 in 0.00 W/m2 BKN
18:44 31.3 °F 20.5 °F 30.27 in SSE 2.3 mph 1.2 mph 64% 0.00 in 0.00 W/m2 BKN
18:49 31.5 °F 20.3 °F 30.28 in SE 2.0 mph 0.1 mph 63% 0.00 in 0.00 W/m2 BKN
18:54 31.5 °F 20.3 °F 30.27 in SSE 4.6 mph 1.9 mph 63% 0.00 in 0.00 W/m2 BKN
18:59 31.6 °F 19.3 °F 30.27 in East 4.0 mph 1.0 mph 60% 0.00 in 0.00 W/m2 BKN
19:04 31.7 °F 20.5 °F 30.27 in SE 1.2 mph 0.6 mph 63% 0.00 in 0.00 W/m2 SCT
19:09 31.6 °F 19.7 °F 30.27 in ESE 2.3 mph 0.5 mph 61% 0.00 in 0.00 W/m2 SCT
19:14 31.6 °F 19.3 °F 30.28 in SE 3.5 mph 2.3 mph 60% 0.00 in 0.00 W/m2 SCT
19:19 31.6 °F 21.2 °F 30.28 in SE 5.8 mph 2.4 mph 65% 0.00 in 0.00 W/m2 SCT
19:24 31.5 °F 19.2 °F 30.28 in SE 3.5 mph 1.9 mph 60% 0.00 in 0.00 W/m2 SCT
19:29 31.4 °F 20.2 °F 30.28 in South 2.3 mph 1.2 mph 63% 0.00 in 0.00 W/m2 SCT
19:34 31.3 °F 19.4 °F 30.28 in SE 2.3 mph 0.8 mph 61% 0.00 in 0.00 W/m2 SCT
19:39 31.2 °F 20.1 °F 30.27 in SSE 3.5 mph 1.9 mph 63% 0.00 in 0.00 W/m2 SCT
19:44 31.0 °F 19.9 °F 30.27 in SE 3.5 mph 1.2 mph 63% 0.00 in 0.00 W/m2 SCT
19:49 30.9 °F 19.4 °F 30.27 in SE 3.0 mph 1.3 mph 62% 0.00 in 0.00 W/m2 SCT
19:54 30.9 °F 19.4 °F 30.27 in SE 3.5 mph 1.5 mph 62% 0.00 in 0.00 W/m2 SCT
19:59 31.2 °F 20.4 °F 30.27 in SSE 2.0 mph 1.7 mph 64% 0.00 in 0.00 W/m2 SCT
20:04 31.4 °F 19.9 °F 30.26 in SSE 6.9 mph 3.1 mph 62% 0.00 in 0.00 W/m2 OVC
20:09 31.6 °F 19.7 °F 30.27 in SSE 4.0 mph 2.3 mph 61% 0.00 in 0.00 W/m2 OVC
20:14 31.7 °F 19.4 °F 30.27 in SE 3.0 mph 1.6 mph 60% 0.00 in 0.00 W/m2 OVC
20:19 31.8 °F 19.5 °F 30.26 in SSE 3.5 mph 2.3 mph 60% 0.00 in 0.00 W/m2 OVC
20:24 32.0 °F 18.9 °F 30.26 in SE 9.2 mph 2.1 mph 58% 0.00 in 0.00 W/m2 OVC
20:29 32.1 °F 19.4 °F 30.26 in SSE 4.6 mph 3.1 mph 59% 0.00 in 0.00 W/m2 OVC
20:34 32.1 °F 19.0 °F 30.26 in South 4.6 mph 3.2 mph 58% 0.00 in 0.00 W/m2 OVC
20:39 32.1 °F 18.6 °F 30.27 in SSE 5.0 mph 3.3 mph 57% 0.00 in 0.00 W/m2 OVC
20:44 32.1 °F 18.6 °F 30.27 in ESE 4.6 mph 3.6 mph 57% 0.00 in 0.00 W/m2 OVC
20:49 32.0 °F 18.5 °F 30.27 in South 8.1 mph 2.5 mph 57% 0.00 in 0.00 W/m2 OVC
20:54 32.1 °F 18.2 °F 30.27 in South 8.1 mph 1.6 mph 56% 0.00 in 0.00 W/m2 OVC
20:59 32.2 °F 18.2 °F 30.26 in SSW 6.9 mph 3.8 mph 56% 0.00 in 0.00 W/m2 OVC
21:04 32.2 °F 18.2 °F 30.27 in SSE 8.1 mph 4.0 mph 56% 0.00 in 0.00 W/m2 OVC
21:09 32.2 °F 18.2 °F 30.27 in South 4.6 mph 3.1 mph 56% 0.00 in 0.00 W/m2 OVC
21:14 32.0 °F 18.5 °F 30.27 in South 9.2 mph 4.0 mph 57% 0.00 in 0.00 W/m2 OVC
21:19 32.0 °F 18.5 °F 30.26 in SSE 6.9 mph 5.2 mph 57% 0.00 in 0.00 W/m2 OVC
21:24 32.0 °F 18.9 °F 30.26 in SSE 5.8 mph 4.7 mph 58% 0.00 in 0.00 W/m2 OVC
21:29 32.0 °F 18.9 °F 30.26 in SE 4.6 mph 3.4 mph 58% 0.00 in 0.00 W/m2 OVC
21:34 32.1 °F 19.0 °F 30.26 in SSE 6.9 mph 3.7 mph 58% 0.00 in 0.00 W/m2 OVC
21:39 32.2 °F 19.1 °F 30.26 in SSE 4.6 mph 4.1 mph 58% 0.00 in 0.00 W/m2 OVC
21:44 32.3 °F 18.3 °F 30.27 in SSW 3.5 mph 1.4 mph 56% 0.00 in 0.00 W/m2 OVC
21:49 32.3 °F 17.9 °F 30.27 in South 5.8 mph 2.3 mph 55% 0.00 in 0.00 W/m2 OVC
21:54 32.3 °F 18.3 °F 30.27 in SSE 3.5 mph 1.4 mph 56% 0.00 in 0.00 W/m2 OVC
21:59 32.3 °F 17.9 °F 30.27 in SSE 6.9 mph 1.9 mph 55% 0.00 in 0.00 W/m2 OVC
22:04 32.3 °F 17.9 °F 30.27 in SE 4.6 mph 2.7 mph 55% 0.00 in 0.00 W/m2 OVC
22:09 32.3 °F 18.3 °F 30.27 in SSW 4.6 mph 2.3 mph 56% 0.00 in 0.00 W/m2 OVC
22:14 32.1 °F 19.0 °F 30.27 in SE 4.6 mph 2.3 mph 58% 0.00 in 0.00 W/m2 OVC
22:19 32.0 °F 18.5 °F 30.27 in SSE 3.5 mph 2.8 mph 57% 0.00 in 0.00 W/m2 OVC
22:24 31.9 °F 18.4 °F 30.27 in SSW 4.6 mph 2.4 mph 57% 0.00 in 0.00 W/m2 OVC
22:29 31.8 °F 18.3 °F 30.27 in SSE 3.5 mph 1.9 mph 57% 0.00 in 0.00 W/m2 OVC
22:34 31.6 °F 18.5 °F 30.27 in SE 4.0 mph 1.5 mph 58% 0.00 in 0.00 W/m2 OVC
22:39 31.6 °F 17.7 °F 30.27 in South 5.0 mph 2.1 mph 56% 0.00 in 0.00 W/m2 OVC
22:44 31.7 °F 18.2 °F 30.27 in SE 4.6 mph 3.2 mph 57% 0.00 in 0.00 W/m2 OVC
22:49 31.7 °F 18.6 °F 30.27 in South 4.6 mph 2.6 mph 58% 0.00 in 0.00 W/m2 OVC
22:54 31.8 °F 17.5 °F 30.27 in SSE 4.6 mph 3.2 mph 55% 0.00 in 0.00 W/m2 OVC
22:59 31.8 °F 18.3 °F 30.27 in South 4.6 mph 3.0 mph 57% 0.00 in 0.00 W/m2 OVC
23:04 31.9 °F 18.4 °F 30.27 in South 3.5 mph 2.6 mph 57% 0.00 in 0.00 W/m2 OVC
23:09 32.0 °F 18.1 °F 30.27 in South 3.5 mph 1.6 mph 56% 0.00 in 0.00 W/m2 OVC
23:14 32.2 °F 19.1 °F 30.27 in South 4.6 mph 1.3 mph 58% 0.00 in 0.00 W/m2 OVC
23:19 32.3 °F 18.3 °F 30.27 in South 4.6 mph 3.0 mph 56% 0.00 in 0.00 W/m2 OVC
23:24 32.3 °F 18.8 °F 30.27 in SSE 4.6 mph 3.3 mph 57% 0.00 in 0.00 W/m2 OVC
23:29 32.4 °F 18.0 °F 30.27 in SSW 5.8 mph 2.5 mph 55% 0.00 in 0.00 W/m2 OVC
23:34 32.5 °F 18.5 °F 30.27 in SE 6.9 mph 2.6 mph 56% 0.00 in 0.00 W/m2 OVC
23:39 32.5 °F 18.5 °F 30.27 in South 5.0 mph 3.3 mph 56% 0.00 in 0.00 W/m2 OVC
23:44 32.5 °F 18.9 °F 30.27 in SSE 2.0 mph 0.9 mph 57% 0.00 in 0.00 W/m2 OVC
23:49 32.5 °F 18.5 °F 30.27 in SE 4.0 mph 3.0 mph 56% 0.00 in 0.00 W/m2 OVC
23:54 32.6 °F 18.6 °F 30.27 in SSE 4.6 mph 2.0 mph 56% 0.00 in 0.00 W/m2 OVC
23:59 32.5 °F 18.5 °F 30.27 in South 4.6 mph 2.5 mph 56% 0.00 in 0.00 W/m2 OVC
Fulton, MO, USA
Compliments of Weather Underground - 2.25 mb